This is the latest recevied weather packets stored in our database for station/object N2QKV-13. If no packets are shown the sender has not sent any weather packets the latest 10 day(s).
| Time | Temp. | Humidity | Pressure | Rain* | Wind** | Luminosity | Snow |
|---|---|---|---|---|---|---|---|
| 1777748403 | 14.44° C | 67% | 1011 hPa | 0 mm | - | - | - |
| 1777748104 | 15° C | 65% | 1010.8 hPa | 0 mm | - | - | - |
| 1777747804 | 16.11° C | 66% | 1010.9 hPa | 0 mm | - | - | - |
| 1777747503 | 16.11° C | 69% | 1010.9 hPa | 0 mm | - | - | - |
| 1777747204 | 15.56° C | 67% | 1010.9 hPa | 0 mm | - | - | - |
| 1777746303 | 15.56° C | 65% | 1010.9 hPa | 0 mm | - | - | - |
| 1777746004 | 15.56° C | 65% | 1010.9 hPa | 0 mm | - | - | - |
| 1777745703 | 15.56° C | 68% | 1011 hPa | 0 mm | - | - | - |
| 1777745403 | 15° C | 68% | 1011 hPa | 0 mm | - | - | - |
| 1777744804 | 14.44° C | 71% | 1011.1 hPa | 0 mm | - | - | - |
| 1777744204 | 15° C | 68% | 1011.2 hPa | 0 mm | - | - | - |
| 1777743904 | 15° C | 64% | 1011.2 hPa | 0 mm | - | - | - |
| 1777743603 | 15° C | 64% | 1011.3 hPa | 0 mm | - | - | - |
| 1777743303 | 15° C | 62% | 1011.2 hPa | 0 mm | - | - | - |
| 1777743004 | 15° C | 62% | 1011.2 hPa | 0 mm | - | - | - |
| 1777742704 | 15° C | 63% | 1011.3 hPa | 0 mm | - | - | - |
| 1777742403 | 15° C | 62% | 1011.4 hPa | 0 mm | - | - | - |
| 1777742103 | 14.44° C | 68% | 1011.4 hPa | 0 mm | - | - | - |
| 1777741803 | 14.44° C | 70% | 1011.3 hPa | 0 mm | - | - | - |
| 1777741504 | 15° C | 68% | 1011.4 hPa | 0 mm | - | - | - |
| 1777741204 | 14.44° C | 65% | 1011.5 hPa | 0 mm | - | - | - |
| 1777740904 | 14.44° C | 64% | 1011.7 hPa | 0 mm | - | - | - |
| 1777740604 | 15° C | 63% | 1011.7 hPa | 0 mm | - | - | - |
| 1777740304 | 14.44° C | 64% | 1011.8 hPa | 0 mm | - | - | - |
| 1777740008 | 14.44° C | 64% | 1011.7 hPa | 0 mm | - | - | - |
* Rain latest hour (hover to see other rain measurements)
** Current wind speed in m/s (hover to see current wind gust speed)